Starlink 5142

operational
NORAD ID: 53984 Int'l Des: 2022-125 Owner: SPXS Country: US Constellation: starlink
LEOCIRCULAR

Über Starlink 5142

Beschreibung wird geladen...

Live-Position

3D-Globus wird geladen...

Nächste Überflüge

Höhenverlauf

Altitude vs Time

uPlot chart will show altitude changes over time

Zweizeiliger Elementsatz

1 53984U 22125W 25257.44667442 -.00001216 00000-0 -58358-4 0 9994
2 53984 53.2151 285.4631 0001117 83.6472 276.4647 15.08828444162859
Epoch: 14. Sept. 2025 • Age: 27 hours

Aktueller Status

Höhe 545.7 km
Geschwindigkeit 7.59 km/s
Subsatellitenpunkt -20.14°S, 65.32°E
Startdatum 5. Okt. 2022
Alter 2.9 years
Typ internet

Technische Details

Klassifizierung Payload
Masse 305.00 kg
Trockenmasse 290.00 kg
Gesamtmasse 305.00 kg
Länge 0.20 m
Durchmesser 2.80 m
Spannweite 9.00 m
Form Box + pan
Hersteller SPXS
Bus-Typ Starlink
Phasenstatus In Orbit
Besitzer/Staat SPXS/US

Große Konstellationen

Loading constellations...